Tracking 26198 objects as of 1-Oct-2022
HD Live streaming from Space Station
objects crossing your sky now

COSMOS 1741 DEB *

Track COSMOS 1741 DEB * now!
10-day predictions


NORAD ID: 17843
Int'l Code: 1986-030D
Perigee: 741.2 km
Apogee: 763.6 km
Inclination: 74.0 °
Period: 99.7 minutes
Semi major axis: 7123 km
RCS: 0.0078 m2 (small)
Launch date: April 17, 1986
Source: Commonwealth of Independent States (former USSR) (CIS)
Launch site: PLESETSK MISSILE AND SPACE COMPLEX (PKMTR)

Note: This is SATELLITE DEBRIS
aabbcc
Your satellite tracking list
Your tracking list is empty




NASA's NSSDC Master Catalog

Two Line Element Set (TLE):
1 17843U 86030D   22273.72531998  .00001286  00000-0  38356-3 0  9995
2 17843  74.0319 245.7666 0015736 306.3512  53.6192 14.44007742908979
Source of the keplerian elements: AFSPC